Tracking 20241 objects as of 26-Jan-2020
HD Live streaming from Space Station
objects crossing your sky now

COSMOS 2251 DEB

Track COSMOS 2251 DEB now!
10-day predictions


NORAD ID: 34117
Int'l Code: 1993-036KN
Perigee: 745.3 km
Apogee: 840.7 km
Inclination: 74.0 °
Period: 100.6 minutes
Semi major axis: 7163 km
RCS: 0.0476 m2 (small)
Launch date: June 16, 1993
Source: Commonwealth of Independent States (former USSR) (CIS)
Launch site: PLESETSK MISSILE AND SPACE COMPLEX (PKMTR)

Note: This is SATELLITE DEBRIS
aabbcc
Your satellite tracking list
Your tracking list is empty




NASA's NSSDC Master Catalog

Two Line Element Set (TLE):
1 34117U 93036KN  20025.48600734  .00000116  00000-0  51978-4 0  9990
2 34117  74.0435 315.4779 0066548 199.4361 160.4252 14.31762682573510
Source of the keplerian elements: AFSPC